[[{"header":{"parameterUnit":"m.s-1","parameterCategory":1,"la1":30.2991,"la2":30.254,"lo1":-89.0895,"lo2":-89.0444,"dy":0.0017,"dx":0.0017,"nx":28,"ny":28,"refTime":"2025-12-12T09:00:00:Z","depth":0,"parameterNumber":2,"parameterNumberName":"U-component_of_WINDS"},"data":[0,0,0,0,0,0,0,0,0,0,0,0,0,0,0,0,0,0,0,0,0,0,0,0,0,0,0,0,0,0,0,0,0,0,0,0,0,0,0,0,0,0,0,0,0,0,0,0,0,0,0,0,0,0,0,0,0,0,-2.8921,-2.892,0,-2.8883,-2.8882,-2.8882,-2.8756,-2.8754,-2.8751,-2.8748,-2.8711,-2.8713,-2.8715,0,0,0,0,0,0,0,0,0,0,0,0,0,-2.8888,-2.8889,-2.8921,-2.892,-2.892,-2.8883,-2.8882,-2.8882,-2.8757,-2.8753,-2.875,-2.8747,-2.8711,-2.8713,-2.8715,0,0,0,0,0,0,0,0,0,0,0,0,0,-2.8882,-2.889,-2.8921,-2.8853,-2.8846,-2.8883,-2.8882,-2.8882,-2.8758,-2.8753,-2.8749,-2.8745,-2.871,-2.8713,-2.8715,-2.8815,0,0,-2.8723,-2.8724,0,0,0,0,0,0,0,0,-2.8882,-2.8883,-2.8863,-2.8858,-2.885,-2.882,-2.8857,-2.8859,-2.8759,-2.8791,-2.8748,-2.8743,-2.8751,-2.875,-2.8752,-2.8813,-2.8812,-2.8723,-2.8724,-2.8725,-2.8726,0,0,0,0,0,0,0,-2.8883,-2.8884,-2.8906,-2.8863,-2.8855,-2.8825,-2.882,-2.8857,-2.8796,-2.8788,-2.8779,-2.8776,-2.8747,-2.875,-2.875,-2.8811,-2.8723,-2.8725,-2.8726,-2.8727,-2.8954,-2.8958,0,0,0,0,0,0,-2.8893,-2.8885,-2.8907,-2.8905,-2.8856,-2.883,-2.8823,-2.8834,-2.8795,-2.8785,-2.878,-2.877,-2.8748,-2.8748,-2.8749,-2.8863,-2.8725,-2.8728,-2.8729,-2.895,-2.8955,-2.896,0,0,0,0,0,0,-2.8892,-2.8896,-2.8908,-2.8892,-2.8892,-2.8835,-2.8848,-2.8836,-2.8839,-2.8788,-2.8777,-2.8794,-2.8745,-2.8745,-2.88,-2.886,-2.8729,-2.8731,-2.8944,-2.8951,-2.8958,-2.9094,0,0,0,0,0,0,-2.8892,-2.8896,-2.8933,-2.8894,-2.8893,-2.8959,-2.8851,-2.8838,-2.8843,-2.883,-2.8799,-2.879,-2.8741,-2.8797,-2.8802,-2.8861,-2.8733,-2.8938,-2.8947,-2.8955,-2.9084,-2.9105,-2.9123,0,0,0,0,0,-2.8891,-2.8973,-2.8935,-2.8938,-2.8937,-2.8963,-2.8963,-2.8905,-2.8848,-2.8885,-2.8853,-2.8791,-2.8853,-2.8803,-2.8808,-2.8869,-2.8934,-2.8945,-2.8955,-2.9075,-2.9101,-2.9122,0,0,0,0,0,0,-2.902,-2.8966,-2.8924,-2.8995,-2.8985,-2.8942,-2.8986,-2.8933,-2.8939,-2.8927,-2.8856,-2.885,-2.8915,-2.8897,-2.8843,-2.8965,-2.8884,-2.8895,-2.8974,-2.8997,-2.9016,-2.9019,-2.8735,0,0,0,0,0,-2.9056,-2.9081,-2.9033,-2.9101,-2.9098,-2.9044,-2.9053,-2.9009,-2.8996,-2.8991,-2.8962,-2.8953,-2.897,-2.8983,-2.8996,-2.9082,-2.9073,-2.9126,-2.9146,-2.9162,-2.9173,-2.9218,-2.9241,-2.8994,-2.8993,-2.8993,0,0,-2.9132,-2.9106,-2.9126,-2.9126,-2.9113,-2.9141,-2.904,-2.9074,-2.9095,-2.8996,-2.9045,-2.9025,-2.9009,-2.908,-2.911,-2.9068,-2.924,-2.9175,-2.9188,-2.919,-2.9231,-2.9254,-2.9275,-2.9,-2.8999,-2.8998,0,0,-2.9284,-2.9267,-2.9322,-2.9311,-2.9293,-2.9256,-2.927,-2.9236,-2.9218,-2.9267,-2.9194,-2.9218,-2.925,-2.9242,-2.9242,-2.9395,-2.9338,-2.9402,-2.9502,-2.9548,-2.9567,-2.9584,-2.9639,-2.966,-2.9413,-2.9413,-2.9413,0,-2.9381,-2.9419,-2.9357,-2.9396,-2.9399,-2.9311,-2.9367,-2.936,-2.9347,-2.9352,-2.9305,-2.9344,-2.9327,-2.9395,-2.9433,-2.9436,-2.945,-2.9404,-2.9569,-2.9586,-2.96,-2.9652,-2.9673,-2.9421,-2.942,-2.9419,-2.9419,0,-2.954,-2.9568,-2.9615,-2.9605,-2.9613,-2.9661,-2.9607,-2.9623,-2.958,-2.955,-2.9602,-2.9579,-2.9587,-2.96,-2.9558,-2.9664,-2.9638,-2.9582,-2.9498,-2.9633,-2.968,-2.97,-2.9432,-2.9429,-2.9427,-2.9425,0,0,-2.9769,-2.9726,-2.9744,-2.9739,-2.9714,-2.9735,-2.978,-2.9787,-2.9803,-2.9798,-2.9834,-2.9864,-2.9813,-2.9813,-2.977,-2.981,-2.9934,-2.9748,-2.9747,-2.9784,-3.0049,-3.0092,-3.0115,-2.9897,-2.99,-2.9903,-3.0051,0,-2.9913,-2.9986,-2.9932,-3.0014,-3.0041,-2.996,-2.9999,-2.9989,-2.9962,-2.9982,-2.9953,-2.9975,-2.9905,-2.9905,-2.9941,-2.9911,-2.9986,-2.99,-2.993,-2.9932,-2.9935,-3.014,-3.0184,-3.0324,-3.0069,-3.0072,-3.0074,0,-3.009,-3.0094,-3.0179,-3.015,-3.0159,-3.0195,-3.0199,-3.0218,-3.0206,-3.0184,-3.0187,-3.0134,-3.0177,-3.0097,-3.0156,-3.0099,-3.0108,-3.0096,-3.01,-3.01,-3.001,-3.0145,-3.0367,-3.0388,-3.0103,-3.01,-3.0098,0,-3.0249,-3.0275,-3.033,-3.0328,-3.0296,-3.0324,-3.0312,-3.0295,-3.0304,-3.0308,-3.0313,-3.0322,-3.0327,-3.0337,-3.0289,-3.0234,-3.0355,-3.027,-3.0338,-3.034,-3.0365,-3.0364,-3.0593,-3.0374,-3.0374,-3.0373,-3.0373,0,-3.0415,-3.047,-3.0401,-3.0434,-3.0495,-3.0434,-3.0496,-3.0476,-3.0462,-3.0491,-3.0423,-3.0452,-3.0387,-3.041,-3.0373,-3.0428,-3.0431,-3.0415,-3.0405,-3.0421,-3.0423,-3.0425,-3.0414,-3.0379,-3.0378,-3.0377,-3.0376,0,-3.0601,-3.0557,-3.0611,-3.0577,-3.057,-3.0616,-3.0587,-3.0618,-3.0588,-3.0626,-3.0631,-3.0585,-3.0609,-3.0562,-3.058,-3.0555,-3.0633,-3.0607,-3.0637,-3.0629,-3.07,-3.0694,-3.0936,-3.0965,-3.073,-3.0732,-3.0734,0,-3.0709,-3.075,-3.0721,-3.0736,-3.0728,-3.0752,-3.0761,-3.0704,-3.0717,-3.0707,-3.0739,-3.0758,-3.0768,-3.0811,-3.0779,-3.0793,-3.0766,-3.0851,-3.0768,-3.0783,-3.0767,-3.0765,-3.0769,-3.0867,-3.087,-3.0872,-3.0874,0,-3.0906,-3.0883,-3.0898,-3.0907,-3.092,-3.0924,-3.0923,-3.0939,-3.0879,-3.0897,-3.092,-3.093,-3.0948,-3.0967,-3.0974,-3.0962,-3.0909,-3.0901,-3.0918,-3.0934,-3.0949,-3.0941,-3.0682,-3.0895,-3.0893,-3.0892,-3.0891,-3.089,-3.1055,-3.1088,-3.1074,-3.1094,-3.1088,-3.109,-3.1117,-3.1091,-3.111,-3.112,-3.1086,-3.1118,-3.1107,-3.1111,-3.1106,-3.113,-3.1093,-3.1117,-3.1122,-3.1129,-3.114,-3.0947,-3.1132,-3.1131,-3.113,-3.113,-3.1129,0,-3.1248,-3.1235,-3.1255,-3.1256,-3.1273,-3.1222,-3.122,-3.1237,-3.1266,-3.126,-3.1273,-3.1301,-3.132,-3.1292,-3.1306,-3.1332,-3.1308,-3.1337,-3.1334,-3.1332,-3.1173,-3.1157,-3.1356,-3.1356,-3.1356,-3.1356,-3.1356,-3.1356,-3.135,-3.1403,-3.1379,-3.143,-3.1417,-3.1448,-3.1451,-3.1453,-3.1448,-3.1482,-3.1498,-3.1479,-3.1465,-3.1478,-3.1494,-3.1485,-3.1494,-3.1532,-3.1515,-3.1366,-3.1344,-3.1322,-3.1307,-3.1534,-3.1535,-3.1671,-3.1673,-3.1674]},{"header":{"parameterUnit":"m.s-1","parameterCategory":1,"la1":30.2991,"la2":30.254,"lo1":-89.0895,"lo2":-89.0444,"dy":0.0017,"dx":0.0017,"nx":28,"ny":28,"refTime":"2025-12-12T09:00:00:Z","depth":0,"parameterNumber":3,"parameterNumberName":"V-component_of_WINDS"},"data":[0,0,0,0,0,0,0,0,0,0,0,0,0,0,0,0,0,0,0,0,0,0,0,0,0,0,0,0,0,0,0,0,0,0,0,0,0,0,0,0,0,0,0,0,0,0,0,0,0,0,0,0,0,0,0,0,0,0,0.3288,0.3288,0,0.3292,0.3292,0.3292,0.3339,0.334,0.3341,0.3342,0.3344,0.3343,0.3342,0,0,0,0,0,0,0,0,0,0,0,0,0,0.3318,0.3317,0.3288,0.3288,0.3288,0.3292,0.3292,0.3292,0.3339,0.334,0.3341,0.3343,0.3344,0.3343,0.3342,0,0,0,0,0,0,0,0,0,0,0,0,0,0.3312,0.3317,0.3288,0.3311,0.3314,0.3292,0.3292,0.3292,0.3338,0.334,0.3342,0.3343,0.3345,0.3343,0.3341,0.3296,0,0,0.3337,0.3336,0,0,0,0,0,0,0,0,0.3312,0.331,0.3308,0.331,0.3312,0.3317,0.3303,0.3293,0.3338,0.3329,0.3342,0.3344,0.3333,0.3333,0.3329,0.3296,0.3296,0.3336,0.3335,0.3335,0.3334,0,0,0,0,0,0,0,0.3312,0.3311,0.3289,0.3308,0.331,0.3322,0.3323,0.3302,0.3321,0.333,0.3333,0.3333,0.3335,0.3331,0.333,0.3296,0.3336,0.3335,0.3334,0.3333,0.3228,0.3226,0,0,0,0,0,0,0.331,0.3311,0.3289,0.3289,0.3317,0.332,0.3321,0.3313,0.3321,0.3324,0.3332,0.3335,0.3333,0.3332,0.333,0.3279,0.3335,0.3333,0.3332,0.323,0.3228,0.3226,0,0,0,0,0,0,0.331,0.3307,0.3289,0.3301,0.33,0.3317,0.3309,0.3313,0.3309,0.3323,0.3326,0.3324,0.3334,0.3332,0.3305,0.3279,0.3333,0.3331,0.3232,0.3229,0.3227,0.3175,0,0,0,0,0,0,0.3311,0.3307,0.329,0.33,0.3299,0.3264,0.3307,0.3311,0.3306,0.3311,0.3317,0.3319,0.3335,0.3307,0.3303,0.3278,0.333,0.3235,0.3231,0.3228,0.3179,0.317,0.3163,0,0,0,0,0,0.3312,0.3274,0.3289,0.3286,0.3278,0.3262,0.3261,0.3281,0.3304,0.3287,0.3297,0.3319,0.3283,0.3304,0.33,0.3274,0.3236,0.3232,0.3228,0.3182,0.3172,0.3163,0,0,0,0,0,0,0.3259,0.3276,0.3293,0.3258,0.3258,0.327,0.3249,0.327,0.3263,0.3268,0.3292,0.3293,0.3262,0.3265,0.3288,0.3231,0.3264,0.3258,0.323,0.3221,0.3213,0.3212,0.3329,0,0,0,0,0,0.3244,0.3231,0.3246,0.3213,0.3213,0.3231,0.3225,0.3241,0.3242,0.3242,0.3249,0.3249,0.3238,0.3229,0.322,0.318,0.3182,0.316,0.3152,0.3146,0.3141,0.3121,0.3112,0.3212,0.3212,0.3212,0,0,0.3212,0.3219,0.3209,0.3203,0.3205,0.3191,0.3231,0.3213,0.3202,0.3239,0.3214,0.3219,0.3221,0.3187,0.3173,0.3189,0.3114,0.3141,0.3136,0.3134,0.3116,0.3106,0.3098,0.3209,0.321,0.321,0,0,0.3145,0.3149,0.3124,0.3126,0.313,0.3142,0.3136,0.3145,0.3151,0.3127,0.3154,0.3141,0.3121,0.3121,0.3119,0.3055,0.3075,0.3051,0.301,0.2991,0.2983,0.2976,0.2953,0.2945,0.3046,0.3046,0.3046,0,0.3104,0.3083,0.3107,0.3088,0.3085,0.312,0.3094,0.3094,0.3094,0.3091,0.311,0.3086,0.309,0.3057,0.3042,0.3038,0.3032,0.305,0.2982,0.2975,0.2969,0.2948,0.2939,0.3043,0.3043,0.3044,0.3044,0,0.3033,0.3018,0.2997,0.2998,0.2992,0.297,0.299,0.2982,0.2998,0.3009,0.2984,0.299,0.2982,0.2976,0.2991,0.2946,0.2956,0.2978,0.3011,0.2956,0.2937,0.2929,0.3039,0.304,0.3041,0.3041,0,0,0.2931,0.2948,0.2939,0.2941,0.2949,0.2938,0.2917,0.2911,0.2904,0.2903,0.2886,0.2869,0.2891,0.2888,0.2904,0.2886,0.2836,0.2911,0.2911,0.2896,0.2787,0.277,0.276,0.285,0.2849,0.2848,0.2787,0,0.2868,0.2834,0.2856,0.2819,0.2806,0.284,0.2822,0.2825,0.2834,0.2825,0.2835,0.2823,0.2852,0.2851,0.2835,0.2845,0.2814,0.285,0.2834,0.2833,0.2832,0.2749,0.2731,0.2673,0.2779,0.2778,0.2777,0,0.2788,0.2786,0.2747,0.276,0.2755,0.2739,0.2736,0.2726,0.273,0.2739,0.2737,0.2757,0.2738,0.2771,0.2745,0.2769,0.2764,0.2768,0.2766,0.2765,0.2801,0.2745,0.2655,0.2646,0.2765,0.2766,0.2767,0,0.2718,0.2705,0.2681,0.2681,0.2695,0.2683,0.2687,0.2693,0.2689,0.2687,0.2684,0.2679,0.2675,0.2671,0.269,0.2712,0.2661,0.2695,0.2667,0.2666,0.2653,0.2654,0.256,0.2651,0.2651,0.2651,0.2651,0,0.2644,0.2619,0.265,0.2635,0.2609,0.2635,0.2608,0.2616,0.2622,0.2609,0.2637,0.2624,0.265,0.264,0.2655,0.2631,0.2629,0.2635,0.2639,0.2632,0.2631,0.2629,0.2633,0.2649,0.2649,0.265,0.265,0,0.2561,0.2581,0.2557,0.2572,0.2576,0.2555,0.2568,0.2555,0.2568,0.2551,0.2549,0.2568,0.2558,0.2577,0.2568,0.2578,0.2545,0.2555,0.2544,0.2547,0.2517,0.2519,0.2418,0.2406,0.2505,0.2504,0.2503,0,0.2512,0.2494,0.2508,0.2502,0.2506,0.2496,0.2492,0.2517,0.2512,0.2517,0.2503,0.2495,0.2491,0.2472,0.2485,0.2479,0.249,0.2455,0.2489,0.2483,0.2489,0.2489,0.2488,0.2447,0.2446,0.2445,0.2444,0,0.2423,0.2434,0.2428,0.2426,0.2422,0.2421,0.2422,0.2415,0.2442,0.2435,0.2426,0.2422,0.2415,0.2406,0.2404,0.2408,0.243,0.2434,0.2427,0.2419,0.2413,0.2416,0.2524,0.2435,0.2436,0.2437,0.2437,0.2438,0.2355,0.2342,0.235,0.2343,0.2347,0.2348,0.2337,0.2349,0.2342,0.2339,0.2354,0.2341,0.2347,0.2346,0.2349,0.2339,0.2354,0.2344,0.2341,0.2338,0.2334,0.2415,0.2338,0.2339,0.2339,0.2339,0.2339,0,0.2268,0.2276,0.2269,0.2271,0.2265,0.2289,0.2292,0.2285,0.2274,0.2278,0.2274,0.2263,0.2256,0.227,0.2265,0.2254,0.2264,0.2252,0.2253,0.2253,0.232,0.2327,0.2244,0.2244,0.2244,0.2244,0.2244,0.2244,0.2222,0.22,0.2213,0.2193,0.2201,0.219,0.219,0.2191,0.2195,0.2182,0.2177,0.2187,0.2194,0.2191,0.2185,0.2189,0.2186,0.217,0.2177,0.2239,0.2249,0.2257,0.2264,0.2169,0.2169,0.2112,0.2111,0.2111]}]]